K9SCH Weather Reports


Display with metric or nautical units.
time (UTC)temp
F
wind
direction
speed
MPH
gust
MPH
rain 1hr
in
rain 24hr
in
rain mn
in
humidity
%
barometer
mb
20260902005016 94 270 2.0 7.0 0.00 0.00 0.00 40 1012.6
20260902004016 94 0.0 1.0 0.00 0.00 0.00 40 1012.6
20260902003016 94 270 1.0 7.0 0.00 0.00 0.00 40 1012.8
20260902002017 94 248 4.0 7.0 0.00 0.00 0.00 40 1012.8
20260902001016 94 225 4.0 6.0 0.00 0.00 0.00 40 1012.8
20260902000018 95 0.0 3.0 0.00 0.00 0.00 39 1013.0
20260901235038 94 270 1.0 4.0 0.00 0.00 0.00 39 1012.9
20260901234037 94 270 5.0 11.0 0.00 0.00 0.00 39 1013.1
20260901233038 95 248 1.0 7.0 0.00 0.00 0.00 40 1013.2
20260901232018 94 0.0 1.0 0.00 0.00 0.00 40 1013.1
20260901231017 94 270 3.0 8.0 0.00 0.00 0.00 40 1013.3
20260901230018 95 338 1.0 5.0 0.00 0.00 0.00 38 1013.5
20260901225016 95 135 1.0 6.0 0.00 0.00 0.00 38 1013.6
20260901224016 95 158 1.0 4.0 0.00 0.00 0.00 38 1013.7
20260901223037 95 135 1.0 4.0 0.00 0.00 0.00 38 1013.9
20260901222036 95 135 1.0 5.0 0.00 0.00 0.00 38 1013.9
20260901221018 95 203 2.0 11.0 0.00 0.00 0.00 38 1013.9
20260901220017 94 0.0 1.0 0.00 0.00 0.00 41 1014.0
20260901215023 94 158 2.0 6.0 0.00 0.00 0.00 41 1014.2
20260901214016 93 293 3.0 5.0 0.00 0.00 0.00 43 1014.4
20260901213017 94 0.0 3.0 0.00 0.00 0.00 41 1014.8
20260901212016 93 135 2.0 6.0 0.00 0.00 0.00 42 1014.8
20260901211036 93 158 2.0 7.0 0.00 0.00 0.00 42 1015.0
20260901210038 92 248 4.0 7.0 0.00 0.00 0.00 43 1015.2
20260901205037 92 338 2.0 5.0 0.00 0.00 0.00 43 1015.3
20260901204018 92 270 1.0 3.0 0.00 0.00 0.00 44 1015.6
20260901203017 94 248 1.0 6.0 0.00 0.00 0.00 42 1015.7
20260901202016 93 0.0 0.0 0.00 0.00 0.00 44 1015.8
20260901201018 91 248 1.0 5.0 0.00 0.00 0.00 45 1015.9
20260901200017 92 248 3.0 6.0 0.00 0.00 0.00 46 1016.1
20260901195015 91 45 2.0 6.0 0.00 0.00 0.00 47 1016.1
20260901194016 91 270 4.0 7.0 0.00 0.00 0.00 46 1016.3
20260901193017 92 0.0 1.0 0.00 0.00 0.00 45 1016.4
20260901192035 91 135 3.0 6.0 0.00 0.00 0.00 45 1016.5
20260901191035 90 270 3.0 6.0 0.00 0.02 0.00 46 1016.5
20260901190016 90 248 2.0 4.0 0.00 0.04 0.00 47 1016.7
20260901185037 89 270 2.0 6.0 0.00 0.06 0.00 47 1016.8
20260901184017 90 248 3.0 6.0 0.00 0.09 0.00 47 1016.9
20260901183018 89 270 3.0 5.0 0.00 0.14 0.00 48 1016.9
20260901182018 91 203 1.0 5.0 0.00 0.19 0.00 45 1017.1
20260901181017 91 158 2.0 6.0 0.00 0.24 0.00 46 1017.2
20260901180016 90 203 2.0 4.0 0.00 0.26 0.00 48 1017.2
20260901175016 89 0.0 3.0 0.00 0.28 0.00 50 1017.3
20260901174017 88 203 1.0 5.0 0.00 0.29 0.00 51 1017.3
20260901173016 86 248 4.0 6.0 0.00 0.30 0.00 52 1017.2
20260901172015 86 248 1.0 4.0 0.00 0.31 0.00 55 1017.3
20260901171016 86 225 2.0 5.0 0.00 0.32 0.00 56 1017.4
20260901170038 85 248 2.0 4.0 0.00 0.32 0.00 56 1017.2
20260901165015 86 203 2.0 6.0 0.00 0.32 0.00 57 1017.3
20260901164017 85 225 3.0 7.0 0.00 0.34 0.00 57 1017.2
20260901163037 86 203 4.0 7.0 0.00 0.34 0.00 55 1017.2
20260901162015 86 0.0 4.0 0.00 0.34 0.00 56 1017.2
20260901161015 86 0.0 0.0 0.00 0.34 0.00 56 1017.1
20260901155017 84 135 1.0 4.0 0.00 0.34 0.00 57 1017.0
20260901153015 83 135 2.0 4.0 0.00 0.34 0.00 57 1016.9
20260901152017 83 0.0 1.0 0.00 0.34 0.00 58 1016.9
20260901151015 83 0.0 1.0 0.00 0.34 0.00 61 1016.9
20260901150016 81 0.0 1.0 0.00 0.34 0.00 63 1016.7
20260901145035 81 0.0 1.0 0.00 0.34 0.00 66 1016.7
20260901144017 79 0.0 1.0 0.00 0.34 0.00 69 1016.6
20260901143015 78 0.0 2.0 0.00 0.34 0.00 72 1016.4
20260901142039 76 113 2.0 4.0 0.00 0.34 0.00 74 1016.4
20260901141015 76 113 3.0 4.0 0.00 0.34 0.00 76 1016.3
20260901140018 74 113 2.0 4.0 0.00 0.35 0.00 78 1016.2
20260901135017 73 113 2.0 4.0 0.00 0.36 0.00 79 1016.2
20260901134016 73 90 2.0 3.0 0.00 0.38 0.00 81 1016.1
20260901133019 72 68 1.0 3.0 0.00 0.41 0.00 83 1016.1
20260901132017 71 90 3.0 4.0 0.00 0.44 0.00 83 1016.1
20260901131018 71 90 1.0 3.0 0.00 0.47 0.00 83 1016.0
20260901130016 71 0.0 0.0 0.00 0.50 0.00 83 1015.9
20260901125015 71 0.0 0.0 0.00 0.54 0.00 83 1016.0
20260901124015 71 0.0 0.0 0.00 0.57 0.00 83 1016.0
20260901123017 71 0.0 0.0 0.00 0.59 0.00 83 1015.9
20260901122017 71 0.0 0.0 0.00 0.60 0.00 83 1015.7
20260901121015 71 0.0 0.0 0.00 0.61 0.00 83 1015.5
20260901120015 71 90 1.0 2.0 0.00 0.62 0.00 82 1015.5
20260901115015 71 90 1.0 3.0 0.00 0.62 0.00 82 1015.4
20260901114018 71 90 2.0 3.0 0.00 0.62 0.00 83 1015.2
20260901113037 71 90 1.0 3.0 0.00 0.62 0.00 83 1015.3
20260901112015 71 68 3.0 4.0 0.00 0.62 0.00 83 1015.3
20260901111037 71 68 3.0 5.0 0.00 0.62 0.00 83 1015.3
20260901110017 71 68 3.0 4.0 0.00 0.63 0.00 83 1015.2
20260901105015 71 68 2.0 3.0 0.00 0.64 0.00 83 1015.2
20260901104018 71 68 2.0 3.0 0.00 0.65 0.00 83 1015.1
20260901103017 71 90 2.0 2.0 0.00 0.69 0.00 84 1015.0
20260901102038 71 90 2.0 2.0 0.00 0.70 0.00 83 1015.0
20260901101020 71 90 2.0 2.0 0.00 0.74 0.00 82 1014.9
20260901100020 71 0.0 0.0 0.00 0.74 0.00 82 1014.8
20260901095018 72 45 1.0 3.0 0.00 0.74 0.00 82 1014.8
20260901094038 72 0.0 0.0 0.00 0.74 0.00 81 1014.7
20260901093018 72 0.0 0.0 0.00 0.74 0.00 81 1014.6
20260901092017 72 68 1.0 3.0 0.00 0.74 0.00 80 1014.7
20260901091021 72 90 2.0 4.0 0.00 0.74 0.00 79 1014.5
20260901090017 73 90 2.0 4.0 0.00 0.74 0.00 79 1014.4
20260901085019 73 68 3.0 5.0 0.00 0.74 0.00 79 1014.5
20260901084017 72 68 3.0 6.0 0.00 0.74 0.00 79 1014.4
20260901083038 72 90 3.0 5.0 0.00 0.74 0.00 80 1014.5
20260901082020 72 90 3.0 5.0 0.00 0.74 0.00 80 1014.5
20260901081018 72 68 2.0 4.0 0.00 0.74 0.00 80 1014.4
20260901080018 72 90 1.0 3.0 0.00 0.74 0.00 80 1014.4
20260901075018 73 90 1.0 3.0 0.00 0.74 0.00 80 1014.4
20260901074041 73 90 2.0 3.0 0.00 0.74 0.00 79 1014.4
20260901073017 73 113 2.0 4.0 0.00 0.74 0.00 78 1014.5
20260901072017 73 68 3.0 6.0 0.00 0.74 0.00 77 1014.5
20260901071037 73 90 3.0 6.0 0.00 0.74 0.00 77 1014.4
20260901070017 73 90 3.0 4.0 0.00 0.74 0.74 78 1014.4
20260901065018 73 68 2.0 4.0 0.00 0.74 0.74 78 1014.4
20260901064018 73 90 2.0 4.0 0.00 0.74 0.74 78 1014.3
20260901063017 73 68 3.0 5.0 0.00 0.74 0.74 78 1014.2
20260901062018 73 68 3.0 5.0 0.00 0.74 0.74 77 1014.2
20260901061017 73 68 2.0 3.0 0.00 0.74 0.74 78 1014.1
20260901060018 73 90 2.0 4.0 0.00 0.74 0.74 77 1014.1
20260901055019 73 90 2.0 6.0 0.00 0.74 0.74 77 1014.1
20260901054017 74 0.0 0.0 0.00 0.74 0.74 77 1014.1
20260901053018 74 90 1.0 5.0 0.00 0.74 0.74 76 1014.0
20260901052018 74 113 3.0 6.0 0.00 0.74 0.74 76 1014.1
20260901051020 74 90 3.0 4.0 0.00 0.74 0.74 77 1014.3
20260901050016 74 90 2.0 4.0 0.00 0.74 0.74 77 1014.3
20260901045018 74 0.0 0.0 0.00 0.74 0.74 77 1014.4
20260901044016 75 0.0 0.0 0.00 0.74 0.74 76 1014.3
20260901043018 75 0.0 0.0 0.00 0.74 0.74 77 1014.4
20260901042018 75 0.0 0.0 0.00 0.74 0.74 78 1014.3
20260901041016 75 0.0 2.0 0.00 0.74 0.74 81 1014.3
20260901040036 75 90 2.0 4.0 0.00 0.74 0.74 82 1014.1
20260901035019 75 0.0 0.0 0.00 0.74 0.74 82 1014.1
20260901034016 76 0.0 0.0 0.00 0.74 0.74 81 1014.2
20260901033038 76 0.0 0.0 0.00 0.74 0.74 81 1014.1
20260901032016 76 0.0 0.0 0.00 0.74 0.74 81 1014.3
20260901031036 76 0.0 0.0 0.00 0.74 0.74 80 1014.1
20260901030016 76 0.0 0.0 0.00 0.74 0.74 79 1014.0
20260901025016 77 0.0 0.0 0.00 0.74 0.74 78 1014.0
20260901024016 77 0.0 0.0 0.00 0.74 0.74 76 1013.7
20260901023018 77 0.0 0.0 0.00 0.74 0.74 75 1013.1
20260901022018 78 0.0 0.0 0.00 0.74 0.74 72 1012.9
20260901021018 78 0.0 0.0 0.00 0.74 0.74 70 1012.6
20260901020019 79 0.0 0.0 0.00 0.74 0.74 68 1012.5
20260901015038 80 0.0 0.0 0.00 0.74 0.74 66 1012.5
20260901014016 80 158 1.0 3.0 0.00 0.74 0.74 63 1012.6
20260901013016 81 158 1.0 5.0 0.00 0.74 0.74 60 1012.6
20260901012018 83 158 1.0 5.0 0.00 0.74 0.74 57 1012.7
20260901011017 83 158 3.0 5.0 0.00 0.74 0.74 57 1012.8
20260901010016 83 158 1.0 5.0 0.00 0.74 0.74 57 1012.9